Regional Weather Roundup
Issued by NWS Wilmington, NC

Home | Current Version | Previous Version | Text Only | Print | Product List | Glossary On
Versions: 1 2 3 4 5 6 7 8 9 10 11 12 13 14 15 16 17 18 19 20 21 22 23 24 25 26 27 28 29 30 31 32 33 34 35 36 37 38 39 40 41 42 43 44 45 46 47 48 49 50
000
ASUS42 KILM 091813
RWRILM
RWRILM
REGIONAL HOURLY WEATHER ROUNDUP
NATIONAL WEATHER SERVICE WILMINGTON NC
100 PM EST TUE FEB 09 2016

NOTE: "FAIR" INDICATES FEW OR NO CLOUDS BELOW 12,000 FEET WITH NO
SIGNIFICANT WEATHER AND/OR OBSTRUCTIONS TO VISIBILITY.

...............WFO WILMINGTON COUNTY WARNING AREA...............

......COASTAL NC AND SC COUNTIES......

CITY           SKY/WX    TMP DP  RH WIND       PRES   REMARKS
WILMINGTON     MOSUNNY   48  26  42 SW21      29.68F
N MYRTLE BEACH MOSUNNY   47  25  42 W15G23    29.71F
MYRTLE BEACH   PTSUNNY   46  23  39 W17G29    29.76F

......INLAND NC AND SC COUNTIES.......

CITY           SKY/WX    TMP DP  RH WIND       PRES   REMARKS
LUMBERTON      CLOUDY    43  24  47 W16G29    29.69F
ELIZABETHTOWN  PTSUNNY   44  24  45 W12G24    29.68F
WHITEVILLE     CLOUDY    45  23  42 SW13G23   29.69F
FLORENCE       PTSUNNY   43  24  47 W20G26    29.72F
DARLINGTON     CLOUDY    43  21  42 W15G24    29.73F
KINGSTREE      CLOUDY    43  23  45 W16       29.75F
HARTSVILLE     CLOUDY    41  23  48 W14G23    29.71F
BENNETTSVILLE  PTSUNNY   46  27  46 SW21      29.70F
CONWAY         CLOUDY    43  27  52 W9G20     29.74F
GEORGETOWN     CLOUDY    45  27  49 W17G28    29.77F
MARION         CLOUDY    43  25  49 W18G25    29.73F

....................REST OF NORTH CAROLINA......................

.........EASTERN NC.........

CITY           SKY/WX    TMP DP  RH WIND       PRES   REMARKS
CAPE HATTERAS  SUNNY     48  31  51 W12G28    29.63F
JACKSONVILLE   PTSUNNY   46  28  49 W13G21    29.65F
MOREHEAD CITY  MOSUNNY   49  37  63 SW16G22   29.64F
KENANSVILLE    PTSUNNY   45  30  55 SW10G20   29.66F
NEW BERN       PTSUNNY   46  34  62 W9        29.64F
ELIZABETH CITY MOSUNNY   48  30  49 W15G23    29.58F

.........CENTRAL NC.........

CITY           SKY/WX    TMP DP  RH WIND       PRES   REMARKS
RALEIGH DURHAM PTSUNNY   42  26  53 SW13      29.63F
ROCKY MOUNT    CLOUDY    45  31  58 W12       29.62F
ROANOKE RAPIDS NOT AVBL
FAYETTEVILLE   MOSUNNY   46  22  38 W17G28    29.66F
HOFFMAN        PTSUNNY   43  20  39 W14G26    29.66F

.........WESTERN NC.........

CITY           SKY/WX    TMP DP  RH WIND       PRES   REMARKS
CHARLOTTE      CLOUDY    39  15  37 W12G20    29.70F WCI  32
GREENSBORO     CLOUDY    37  15  40 W10       29.62F WCI  30
HICKORY        NOT AVBL
BOONE          NOT AVBL
ASHEVILLE      NOT AVBL

.....................REST OF SOUTH CAROLINA.....................

.........EASTERN SC.........

CITY           SKY/WX    TMP DP  RH WIND       PRES   REMARKS
CHARLESTON     PTSUNNY   46  24  42 W17G25    29.78F
BEAUFORT MCAS  CLOUDY    45  25  45 W14G24    29.82F
HILTON HEAD    CLOUDY    45  27  49 W13G29    29.84F

.........CENTRAL SC.........

CITY           SKY/WX    TMP DP  RH WIND       PRES   REMARKS
COLUMBIA       CLOUDY    40  22  48 W20G26    29.78F WCI  30
ORANGEBURG     CLOUDY    43  23  45 W17G25    29.78F
SUMTER SHAW    CLOUDY    40  23  50 W14G28    29.74F WCI  33

.........WESTERN SC.........

CITY           SKY/WX    TMP DP  RH WIND       PRES   REMARKS
GREENVILLE     NOT AVBL
ROCK HILL      CLOUDY    38  18  44 W14G23    29.71F WCI  30
ANDERSON       CLOUDY    37  16  42 W15G24    29.76F WCI  28
CLEMSON        NOT AVBL
GREENWOOD      CLOUDY    37  19  48 W13G24    29.78F WCI  29


...................COASTAL AND OFFSHORE REPORTS..................

................LOCAL PIERS AND NC RESERVE................


STATION/POSITION TIME  SKY/WX   TEMP    WIND        PRES    VSBY
                                AIR SEA DIR/SP/G
                 (UTC)          (F)     (DEG/KT/KT) (MB)    (MI)
JOHNY MRCER PIER 1700            44 53  240/ 16/ 22 1004.6F
NC RESRV MASNBRO NOT AVBL
OCEAN CREST PIER NOT AVBL
SPRINGMAID  PIER 1700            43 50  240/ 14/ 20 1006.8F


................COASTAL AND OFFSHORE BUOYS................


STATION/POSITION TIME  SKY/WX   TEMP    WIND        PRES    VSBY
                                AIR SEA DIR/SP/G
                 (UTC)          (F)     (DEG/KT/KT) (MB)    (MI)
DIMNDSHOAL 41025 1750            47 73  280/ 19/ 25 1003.4F
WVE H/P(F/S)= 13/15 SWL H/P/D(F/S/D)= 11/ 80/15

CAPE LOOKOUT     NOT AVBL
ONSLOW BAY 41036 NOT AVBL
ONSLOW BAY 41064 1708            47 61              1004.9F
ONSLOW BAY 41159 1725               61                N/A
WVE H/P(F/S)=  8/ 8 SWL H/P/D(F/S/D)=  3/100/14

5SE WRITBC 41038 1708            45 51  260/ 19/ 25 1005.9F
MASNBO INL 41110 1706               51                N/A
WVE H/P(F/S)=  4/15 SWL H/P/D(F/S/D)=  2/110/15

WILM HARBR 41108 1726               53                N/A
WVE H/P(F/S)=  7/ 6 SWL H/P/D(F/S/D)=  2/170/11

27SE WRITB 41037 NOT AVBL
FRYING PAN 41013 1700            45 56  260/ 25/ 33 1007.5F
SUNST NRSH 41024 NOT AVBL
CAPRS NRSH 41029 1708            45     270/ 21/ 27 1008.4F
EDISTO     41004 1750            47 65  260/ 25/ 29 1008.1F
WVE H/P(F/S)=  8/ 7 SWL H/P/D(F/S/D)=  2/15



..........OFFSHORE BUOYS BEYOND 100 NM OFFSHORE...........
.....IN A TRIANGLE---HAT TO BERMUDA TO BAHAMAS TO HAT.....


STATION/POSITION TIME  SKY/WX   TEMP    WIND        PRES    VSBY
                                AIR SEA DIR/SP/G
                 (UTC)          (F)     (DEG/KT/KT) (MB)    (MI)
150E HAT   41001 1700            57 71  260/ 23/ 39 1002.5R
W BERMUDA  41048 1750            65 70  250/ 31/ 39 1006.0R
WVE H/P(F/S)= 18/10 SWL H/P/D(F/S/D)= 13/240/10

ATLANTIC S 41049 1750            76 76  200/ 17/ 19 1017.7F
WVE H/P(F/S)= 11/12 SWL H/P/D(F/S/D)= 10/300/12

E BAHAMAS  41046 1750            76 79  230/  8/ 14 1018.3F
WVE H/P(F/S)= 10/13 SWL H/P/D(F/S/D)= 10/320/13

NE BAHAMAS 41047 1750            72 75  230/ 23/ 29 1013.8F
WVE H/P(F/S)= 11/ 8 SWL H/P/D(F/S/D)=  7/320/12

120E CANVRL41010 1720            57 72              1014.8F

END




USA.gov is the U.S. government's official web portal to all federal, state and local government web resources and services.